Regional Weather Roundup
Issued by NWS

Home | Current Version | Previous Version | Text Only | Print | Product List | Glossary Off
Versions: 1 2 3 4 5 6 7 8 9 10 11 12 13 14 15 16 17 18 19 20 21 22 23 24 25 26 27 28 29 30 31 32 33 34 35 36 37 38 39 40 41 42 43 44 45 46 47 48 49 50

000
ASUS43 KBIS 011701
RWRND

NORTH DAKOTA REGIONAL WEATHER ROUNDUP
NATIONAL WEATHER SERVICE BISMARCK ND
1100 AM CST SUN FEB 01 2015

NOTE: "FAIR" INDICATES FEW OR NO CLOUDS BELOW 12,000 FEET WITH NO
SIGNIFICANT WEATHER AND/OR OBSTRUCTIONS TO VISIBILITY.


NDZ001>003-009>011-017-011800-
NORTHWEST NORTH DAKOTA

CITY           SKY/WX    TMP DP  RH WIND       PRES   REMARKS
WILLISTON      SUNNY     -4 -10  75 SW5       30.47F WCI -15
MINOT          SUNNY     -4 -15  59 W8        30.50R WCI -19
MINOT AFB      SUNNY     -5 -13  67 W5        30.49F WCI -16
$$

NDZ018>021-031>035-040>046-011800-
SOUTHWEST NORTH DAKOTA

CITY           SKY/WX    TMP DP  RH WIND       PRES   REMARKS
BISMARCK       SUNNY     -3 -15  56 NW7       30.53R WCI -16
DICKINSON      SUNNY     -6 -11  79 W5        30.39S WCI -17
GARRISON         N/A     -6 -15  65 NW6       30.48F WCI -19
HETTINGER ARPT SUNNY     -1  -6  79 NW10      30.40F WCI -17
$$

NDZ004>008-012>016-024-026-027-054-011800-
NORTHEAST NORTH DAKOTA

CITY           SKY/WX    TMP DP  RH WIND       PRES   REMARKS
GRAND FORKS    MOSUNNY   -6 -17  59 N10       30.58F WCI -24
GRND FRKS AFB  SUNNY     -6 -19  54 N8        30.57F WCI -22
DEVILS LAKE    SUNNY     -9 -20  59 NW7       30.50R WCI -24
$$

NDZ022-023-025-028>030-036>039-047>053-011800-
SOUTHEAST NORTH DAKOTA

CITY           SKY/WX    TMP DP  RH WIND       PRES   REMARKS
FARGO          SUNNY     -2 -13  59 N17       30.53R WCI -23
JAMESTOWN      SUNNY     -4 -16  56 N12       30.48F WCI -22
$$




USA.gov is the U.S. government's official web portal to all federal, state and local government web resources and services.